User: anonymous   Login
Location: Albany
(35.0000°S, 118.0000°E)
Time: 04:56:23
(UTC-05:00)
Language:

JAS-1B - Orbit

View from above orbital plane
View from above orbital plane
View from above satellite
View from above satellite

Ground track
Ground track

The orbit data is extracted from the following two-line orbital elements,

1 20480U 90013C   16345.07803678 -.00000016  00000-0  27805-4 0  9999
2 20480  99.0244 147.9073 0540994  99.4851  33.6177 12.83413287257462
Epoch (UTC): 10 December 2016 01:52:22
Eccentricity: 0.0540994
inclination: 99.0244°
perigee height: 911 km
apogee height: 1744 km
right ascension of ascending node: 147.9073°
argument of perigee: 99.4851°
revolutions per day: 12.83413287
mean anomaly at epoch: 33.6177°
orbit number at epoch: 25746

The dashed part of the orbit path shows where the satellite is in the earth's shadow,  

DLR